Weather History for Sturgis, MI

Change the Weather History Date:

Tuesday, February 19, 2013

  Actual Average (KHAI) Record (KHAI)
Temperature  
Mean Temperature 30 °F -  
Max Temperature 44 °F 37 °F 60 °F (1961)
Min Temperature 15 °F 20 °F -15 °F (1979)
Degree Days  
Heating Degree Days 36    
Moisture  
Dew Point 18 °F    
Average Humidity 83    
Maximum Humidity 93    
Minimum Humidity 73    
Precipitation  
Precipitation 0.00 in - - ()
Sea Level Pressure  
Sea Level Pressure 29.73 in    
Wind  
Wind Speed 21 mph (WSW)    
Max Wind Speed 29 mph    
Max Gust Speed 39 mph    
Visibility 6 miles    
Events Rain , Snow    
Averages and records for this station are not official NWS values.
T = Trace of Precipitation, MM = Missing Value Source: NWS Daily Summary

Daily Weather History Graph

Daily Weather History Graph

Search for Another Location

Airport:

Trip Planner

Search our weather history database for the weather conditions in past years. The results will help you decide how hot, cold, wet, or windy it might be!

Date:

Astronomy

Feb. 19, 2013 Rise Set
Actual Time 7:31 AM EST 6:20 PM EST
Civil Twilight 7:03 AM EST 6:48 PM EST
Nautical Twilight 6:30 AM EST 7:21 PM EST
Astronomical Twilight 5:58 AM EST 7:53 PM EST
Moon 12:48 PM EST (2/19) 3:05 AM EST (2/19)
Length of Visible Light 11h 45m
Length of Day
10h 48m
Waxing Gibbous, 67% of the Moon is Illuminated
Feb 19
Waxing Gibbous
Feb 25
Full
Mar 4
Last Quarter
Mar 11
New
Mar 19
First Quarter

Hourly Weather History & Observations

Time (EST) Temp. Windchill Dew Point Humidity Pressure Visibility Wind Dir Wind Speed Gust Speed Precip Events Conditions
12:15 AM 44.6 °F 35.5 °F 39.2 °F 81% 29.49 in 10.0 mi SSW 25.3 mph 32.2 mph N/A Rain Rain
12:34 AM 44.6 °F 35.3 °F 39.2 °F 81% 29.47 in 10.0 mi SSW 26.5 mph 39.1 mph N/A Rain Light Rain
12:55 AM 44.6 °F 35.1 °F 39.2 °F 81% 29.45 in 10.0 mi SSW 27.6 mph 35.7 mph N/A Rain Rain
1:14 AM 44.6 °F 35.9 °F 39.2 °F 81% 29.44 in 7.0 mi South 23.0 mph 29.9 mph N/A   Drizzle
1:35 AM 44.6 °F 35.7 °F 39.2 °F 81% 29.43 in 10.0 mi SSW 24.2 mph 35.7 mph N/A   Drizzle
1:55 AM 42.8 °F 33.5 °F 41.0 °F 93% 29.43 in 5.0 mi SSW 23.0 mph 32.2 mph N/A Rain Light Rain
2:14 AM 42.8 °F 32.5 °F 41.0 °F 93% 29.43 in 5.0 mi SW 28.8 mph 34.5 mph N/A Rain Rain
2:34 AM 37.4 °F 26.4 °F 35.6 °F 93% 29.47 in 4.0 mi West 23.0 mph 34.5 mph N/A Rain Rain
2:55 AM 35.6 °F 25.2 °F 32.0 °F 87% 29.49 in 5.0 mi West 18.4 mph 27.6 mph N/A   Overcast
3:14 AM 33.8 °F 23.2 °F 32.0 °F 93% 29.51 in 10.0 mi West 17.3 mph 23.0 mph N/A   Overcast
3:35 AM 33.8 °F 21.6 °F 32.0 °F 93% 29.52 in 10.0 mi West 23.0 mph 28.8 mph N/A   Overcast
3:55 AM 33.8 °F 22.2 °F 30.2 °F 87% 29.53 in 10.0 mi West 20.7 mph 26.5 mph N/A   Overcast
4:14 AM 33.8 °F 22.8 °F 30.2 °F 87% 29.53 in 7.0 mi West 18.4 mph 26.5 mph N/A   Overcast
4:35 AM 32.0 °F 20.1 °F 30.2 °F 93% 29.54 in 7.0 mi West 19.6 mph 25.3 mph N/A   Overcast
4:54 AM 30.2 °F 18.5 °F 28.4 °F 93% 29.55 in 5.0 mi West 17.3 mph 28.8 mph N/A   Overcast
5:15 AM 30.2 °F 17.4 °F 28.4 °F 93% 29.55 in 4.0 mi WSW 20.7 mph 25.3 mph N/A   Overcast
5:35 AM 28.4 °F 15.1 °F 26.6 °F 93% 29.57 in 7.0 mi WSW 20.7 mph 29.9 mph N/A   Overcast
5:54 AM 26.6 °F 12.7 °F 24.8 °F 93% 29.58 in 10.0 mi WSW 20.7 mph 29.9 mph N/A   Overcast
6:15 AM 26.6 °F 12.7 °F 24.8 °F 93% 29.60 in 10.0 mi WSW 20.7 mph 29.9 mph N/A   Overcast
6:35 AM 24.8 °F 10.3 °F 21.2 °F 86% 29.61 in 10.0 mi WSW 20.7 mph 31.1 mph N/A   Overcast
6:54 AM 24.8 °F 10.0 °F 21.2 °F 86% 29.62 in 10.0 mi WSW 21.9 mph 28.8 mph N/A   Overcast
7:15 AM 24.8 °F 11.9 °F 21.2 °F 86% 29.62 in 10.0 mi WSW 16.1 mph 26.5 mph N/A   Overcast
7:35 AM 23.0 °F 6.9 °F 19.4 °F 86% 29.64 in 10.0 mi WSW 24.2 mph 33.4 mph N/A Snow Light Snow
7:54 AM 23.0 °F 8.3 °F 19.4 °F 86% 29.64 in 10.0 mi West 19.6 mph 25.3 mph N/A Snow Light Snow
8:15 AM 21.2 °F 5.2 °F 17.6 °F 86% 29.65 in 7.0 mi WSW 21.9 mph 31.1 mph N/A Snow Light Snow
8:35 AM 21.2 °F 5.2 °F 17.6 °F 86% 29.66 in 4.0 mi West 21.9 mph 28.8 mph N/A Snow Light Snow
9:15 AM 19.4 °F 1.4 °F 15.8 °F 86% 29.68 in 2.0 mi WSW 26.5 mph 31.1 mph N/A Snow Light Snow
9:34 AM 19.4 °F 2.8 °F 15.8 °F 86% 29.69 in 3.0 mi WSW 21.9 mph 28.8 mph N/A Snow Light Snow
9:55 AM 19.4 °F 5.0 °F 14.0 °F 80% 29.69 in 2.0 mi West 16.1 mph 32.2 mph N/A Snow Light Snow
10:14 AM 19.4 °F 5.0 °F 15.8 °F 86% 29.70 in 1.2 mi West 16.1 mph 31.1 mph N/A Snow Light Snow
10:34 AM 19.4 °F 4.1 °F 15.8 °F 86% 29.71 in 1.5 mi West 18.4 mph 24.2 mph N/A Snow Light Snow
10:55 AM 19.4 °F 4.1 °F 15.8 °F 86% 29.72 in 1.5 mi West 18.4 mph 25.3 mph N/A Snow Light Snow
11:14 AM 17.6 °F 0.9 °F 12.2 °F 79% 29.73 in 4.0 mi West 20.7 mph 29.9 mph N/A Snow Light Snow
11:35 AM 17.6 °F 2.7 °F 14.0 °F 86% 29.74 in 1.5 mi WSW 16.1 mph - N/A Snow Light Snow
11:55 AM 17.6 °F 0.9 °F 12.2 °F 79% 29.75 in 7.0 mi WSW 20.7 mph 25.3 mph N/A Snow Light Snow
12:14 PM 19.4 °F 2.8 °F 12.2 °F 74% 29.75 in 7.0 mi WSW 21.9 mph 25.3 mph N/A Snow Light Snow
12:35 PM 17.6 °F 0.5 °F 10.4 °F 73% 29.76 in 5.0 mi West 21.9 mph 28.8 mph N/A Snow Light Snow
12:55 PM 17.6 °F 2.2 °F 12.2 °F 79% 29.76 in 7.0 mi WSW 17.3 mph 28.8 mph N/A Snow Light Snow
1:14 PM 17.6 °F 2.2 °F 10.4 °F 73% 29.77 in 7.0 mi West 17.3 mph 32.2 mph N/A Snow Light Snow
1:35 PM 17.6 °F 0.5 °F 10.4 °F 73% 29.77 in 7.0 mi West 21.9 mph - N/A Snow Light Snow
1:55 PM 17.6 °F 2.2 °F 10.4 °F 73% 29.78 in 5.0 mi West 17.3 mph 28.8 mph N/A Snow Light Snow
2:14 PM 17.6 °F 1.3 °F 10.4 °F 73% 29.78 in 7.0 mi West 19.6 mph 31.1 mph N/A Snow Light Snow
2:35 PM 17.6 °F 1.7 °F 10.4 °F 73% 29.79 in 2.5 mi West 18.4 mph 27.6 mph N/A Snow Light Snow
2:55 PM 17.6 °F 1.7 °F 10.4 °F 73% 29.81 in 7.0 mi West 18.4 mph 26.5 mph N/A Snow Light Snow
3:15 PM 17.6 °F 1.7 °F 10.4 °F 73% 29.82 in 10.0 mi West 18.4 mph 27.6 mph N/A Snow Light Snow
3:35 PM 15.8 °F -1.1 °F 10.4 °F 79% 29.83 in 7.0 mi West 19.6 mph 28.8 mph N/A Snow Light Snow
3:54 PM 15.8 °F 0.9 °F 10.4 °F 79% 29.84 in 5.0 mi West 15.0 mph 27.6 mph N/A Snow Light Snow
4:15 PM 15.8 °F -1.1 °F 10.4 °F 79% 29.85 in 5.0 mi West 19.6 mph 26.5 mph N/A Snow Light Snow
4:35 PM 15.8 °F 0.3 °F 10.4 °F 79% 29.86 in 10.0 mi West 16.1 mph 26.5 mph N/A Snow Light Snow
4:54 PM 15.8 °F 0.3 °F 10.4 °F 79% 29.87 in 5.0 mi WSW 16.1 mph 24.2 mph N/A Snow Light Snow
5:15 PM 15.8 °F 0.3 °F 10.4 °F 79% 29.89 in 5.0 mi West 16.1 mph 25.3 mph N/A Snow Light Snow
5:35 PM 15.8 °F -0.6 °F 10.4 °F 79% 29.90 in 4.0 mi West 18.4 mph 25.3 mph N/A Snow Light Snow
5:55 PM 15.8 °F 0.3 °F 10.4 °F 79% 29.91 in 3.0 mi West 16.1 mph 26.5 mph N/A Snow Light Snow
6:15 PM 15.8 °F -0.6 °F 10.4 °F 79% 29.92 in 3.0 mi West 18.4 mph 24.2 mph N/A Snow Light Snow
7:34 PM 15.8 °F -0.2 °F 10.4 °F 79% 29.95 in 5.0 mi West 17.3 mph 20.7 mph N/A Snow Light Snow
7:55 PM 15.8 °F 0.3 °F 10.4 °F 79% 29.96 in 4.0 mi West 16.1 mph - N/A Snow Light Snow
8:15 PM 15.8 °F 0.3 °F 10.4 °F 79% 29.96 in 4.0 mi WSW 16.1 mph 20.7 mph N/A Snow Light Snow
8:34 PM 15.8 °F 1.4 °F 10.4 °F 79% 29.96 in 4.0 mi West 13.8 mph 20.7 mph N/A Snow Light Snow
8:55 PM 15.8 °F 2.1 °F 10.4 °F 79% 29.97 in 5.0 mi West 12.7 mph 19.6 mph N/A Snow Light Snow
9:15 PM 15.8 °F 0.3 °F 10.4 °F 79% 29.97 in 5.0 mi West 16.1 mph 20.7 mph N/A Snow Light Snow
9:34 PM 15.8 °F 1.4 °F 10.4 °F 79% 29.98 in 7.0 mi West 13.8 mph 20.7 mph N/A Snow Light Snow
9:55 PM 15.8 °F -0.2 °F 10.4 °F 79% 29.98 in 7.0 mi West 17.3 mph 25.3 mph N/A Snow Light Snow
10:14 PM 15.8 °F 0.3 °F 10.4 °F 79% 29.99 in 5.0 mi West 16.1 mph 20.7 mph N/A Snow Light Snow
10:35 PM 15.8 °F -0.2 °F 10.4 °F 79% 29.99 in 4.0 mi West 17.3 mph 21.9 mph N/A Snow Light Snow
10:55 PM 15.8 °F 1.4 °F 10.4 °F 79% 29.99 in 5.0 mi West 13.8 mph 18.4 mph N/A Snow Light Snow
11:14 PM 15.8 °F 3.4 °F 12.2 °F 86% 29.99 in 7.0 mi West 10.4 mph 17.3 mph N/A Snow Light Snow
11:35 PM 15.8 °F 2.1 °F 12.2 °F 86% 29.99 in 7.0 mi West 12.7 mph 18.4 mph N/A Snow Light Snow
11:55 PM 15.8 °F 2.7 °F 12.2 °F 86% 30.00 in 5.0 mi West 11.5 mph 16.1 mph N/A Snow Light Snow